date,time,SUV Intensity [MED/Hr],UV Index,Daily total [MED],Since Last [MED]
30/09/2022,00:00:57,0.001,0.0,0.0,0.0
30/09/2022,00:01:57,0.001,0.0,0.0,0.0
30/09/2022,00:02:57,-0.001,0.0,0.0,0.0
30/09/2022,00:03:57,0.000,0.0,0.0,0.0
30/09/2022,00:04:57,0.002,0.0,0.0,0.0
30/09/2022,00:05:57,0.001,0.0,0.0,0.0
30/09/2022,00:06:58,-0.001,0.0,0.0,0.0
30/09/2022,00:07:57,0.000,0.0,0.0,0.0
30/09/2022,00:08:57,-0.000,0.0,0.0,0.0
30/09/2022,00:09:57,0.000,0.0,0.0,0.0
30/09/2022,00:10:57,-0.000,0.0,0.0,0.0
30/09/2022,00:11:57,0.000,0.0,0.0,0.0
30/09/2022,00:12:57,-0.000,0.0,0.0,0.0
30/09/2022,00:13:57,0.000,0.0,0.0,0.0
30/09/2022,00:14:57,0.001,0.0,0.0,0.0
30/09/2022,00:15:58,0.001,0.0,0.0,0.0
30/09/2022,00:16:57,0.000,0.0,0.0,0.0
30/09/2022,00:17:57,0.001,0.0,0.0,0.0
30/09/2022,00:18:57,0.000,0.0,0.0,0.0
30/09/2022,00:19:57,-0.001,0.0,0.0,0.0
30/09/2022,00:20:57,0.001,0.0,0.0,0.0
30/09/2022,00:21:58,0.000,0.0,0.0,0.0
30/09/2022,00:22:57,0.000,0.0,0.0,0.0
30/09/2022,00:23:57,-0.001,0.0,0.0,0.0
30/09/2022,00:24:57,0.000,0.0,0.0,0.0
30/09/2022,00:25:57,0.000,0.0,0.0,0.0
30/09/2022,00:26:57,0.000,0.0,0.0,0.0
30/09/2022,00:27:57,0.000,0.0,0.0,0.0
30/09/2022,00:28:57,0.001,0.0,0.0,0.0
30/09/2022,00:29:57,-0.001,0.0,0.0,0.0
30/09/2022,00:30:57,-0.001,0.0,0.0,0.0
30/09/2022,00:31:57,0.000,0.0,0.0,0.0
30/09/2022,00:32:57,0.000,0.0,0.0,0.0
30/09/2022,00:33:57,0.000,0.0,0.0,0.0
30/09/2022,00:34:57,0.000,0.0,0.0,0.0
30/09/2022,00:35:58,-0.000,0.0,0.0,0.0
30/09/2022,00:36:57,0.001,0.0,0.0,0.0
30/09/2022,00:37:57,0.000,0.0,0.0,0.0
30/09/2022,00:38:57,0.001,0.0,0.0,0.0
30/09/2022,00:40:01,0.000,0.0,0.0,0.0
30/09/2022,00:40:57,0.000,0.0,0.0,0.0
30/09/2022,00:41:57,0.001,0.0,0.0,0.0
30/09/2022,00:42:57,0.000,0.0,0.0,0.0
30/09/2022,00:43:57,0.000,0.0,0.0,0.0
30/09/2022,00:44:57,0.000,0.0,0.0,0.0
30/09/2022,00:45:57,0.000,0.0,0.0,0.0
30/09/2022,00:46:57,0.000,0.0,0.0,0.0
30/09/2022,00:47:57,0.000,0.0,0.0,0.0
30/09/2022,00:48:57,-0.001,0.0,0.0,0.0
30/09/2022,00:49:57,0.000,0.0,0.0,0.0
30/09/2022,00:50:57,0.001,0.0,0.0,0.0
30/09/2022,00:51:57,0.000,0.0,0.0,0.0
30/09/2022,00:52:57,0.000,0.0,0.0,0.0
30/09/2022,00:53:57,0.001,0.0,0.0,0.0
30/09/2022,00:54:58,-0.000,0.0,0.0,0.0
30/09/2022,00:55:57,0.000,0.0,0.0,0.0
30/09/2022,00:56:57,0.001,0.0,0.0,0.0
30/09/2022,00:57:57,0.000,0.0,0.0,0.0
30/09/2022,00:58:58,0.000,0.0,0.0,0.0
30/09/2022,00:59:57,0.000,0.0,0.0,0.0
30/09/2022,01:00:57,0.000,0.0,0.0,0.0
30/09/2022,01:01:57,0.000,0.0,0.0,0.0
30/09/2022,01:02:57,0.001,0.0,0.0,0.0
30/09/2022,01:03:58,0.001,0.0,0.0,0.0
30/09/2022,01:04:57,0.000,0.0,0.0,0.0
30/09/2022,01:05:57,0.001,0.0,0.0,0.0
30/09/2022,01:06:57,-0.000,0.0,0.0,0.0
30/09/2022,01:07:57,-0.001,0.0,0.0,0.0
30/09/2022,01:08:57,0.000,0.0,0.0,0.0
30/09/2022,01:09:57,0.000,0.0,0.0,0.0
30/09/2022,01:10:57,0.000,0.0,0.0,0.0
30/09/2022,01:12:02,0.001,0.0,0.0,0.0
30/09/2022,01:12:58,0.000,0.0,0.0,0.0
30/09/2022,01:14:00,0.000,0.0,0.0,0.0
30/09/2022,01:14:58,-0.000,0.0,0.0,0.0
30/09/2022,01:15:57,0.000,0.0,0.0,0.0
30/09/2022,01:16:57,0.000,0.0,0.0,0.0
30/09/2022,01:17:58,0.000,0.0,0.0,0.0
30/09/2022,01:18:57,0.000,0.0,0.0,0.0
30/09/2022,01:19:57,0.000,0.0,0.0,0.0
30/09/2022,01:20:57,0.000,0.0,0.0,0.0
30/09/2022,01:21:58,0.001,0.0,0.0,0.0
30/09/2022,01:22:57,0.001,0.0,0.0,0.0
30/09/2022,01:23:57,0.000,0.0,0.0,0.0
30/09/2022,01:24:57,0.000,0.0,0.0,0.0
30/09/2022,01:25:58,0.001,0.0,0.0,0.0
30/09/2022,01:26:57,0.001,0.0,0.0,0.0
30/09/2022,01:27:57,0.001,0.0,0.0,0.0
30/09/2022,01:28:57,0.000,0.0,0.0,0.0
30/09/2022,01:29:57,-0.001,0.0,0.0,0.0
30/09/2022,01:30:57,0.000,0.0,0.0,0.0
30/09/2022,01:31:57,0.001,0.0,0.0,0.0
30/09/2022,01:32:57,0.001,0.0,0.0,0.0
30/09/2022,01:33:57,0.000,0.0,0.0,0.0
30/09/2022,01:34:57,0.000,0.0,0.0,0.0
30/09/2022,01:35:57,0.000,0.0,0.0,0.0
30/09/2022,01:36:57,-0.000,0.0,0.0,0.0
30/09/2022,01:37:58,0.001,0.0,0.0,0.0
30/09/2022,01:38:57,0.001,0.0,0.0,0.0
30/09/2022,01:39:58,0.001,0.0,0.0,0.0
30/09/2022,01:40:57,0.001,0.0,0.0,0.0
30/09/2022,01:41:57,0.001,0.0,0.0,0.0
30/09/2022,01:42:57,0.000,0.0,0.0,0.0
30/09/2022,01:43:58,-0.001,0.0,0.0,0.0
30/09/2022,01:44:57,-0.000,0.0,0.0,0.0
30/09/2022,01:45:57,0.001,0.0,0.0,0.0
30/09/2022,01:46:57,0.000,0.0,0.0,0.0
30/09/2022,01:47:57,0.000,0.0,0.0,0.0
30/09/2022,01:48:57,0.001,0.0,0.0,0.0
30/09/2022,01:49:57,0.000,0.0,0.0,0.0
30/09/2022,01:50:57,0.000,0.0,0.0,0.0
30/09/2022,01:51:58,0.002,0.0,0.0,0.0
30/09/2022,01:52:57,0.001,0.0,0.0,0.0
30/09/2022,01:53:57,-0.000,0.0,0.0,0.0
30/09/2022,01:54:57,0.000,0.0,0.0,0.0
30/09/2022,01:55:58,-0.000,0.0,0.0,0.0
30/09/2022,01:56:57,0.001,0.0,0.0,0.0
30/09/2022,01:57:57,0.001,0.0,0.0,0.0
30/09/2022,01:58:57,0.000,0.0,0.0,0.0
30/09/2022,01:59:57,0.001,0.0,0.0,0.0
30/09/2022,02:00:57,0.001,0.0,0.0,0.0
30/09/2022,02:01:57,0.001,0.0,0.0,0.0
30/09/2022,02:02:57,0.000,0.0,0.0,0.0
30/09/2022,02:03:58,-0.001,0.0,0.0,0.0
30/09/2022,02:04:57,0.000,0.0,0.0,0.0
30/09/2022,02:05:57,0.001,0.0,0.0,0.0
30/09/2022,02:06:57,0.001,0.0,0.0,0.0
30/09/2022,02:07:58,0.001,0.0,0.0,0.0
30/09/2022,02:08:58,0.000,0.0,0.0,0.0
30/09/2022,02:09:57,0.001,0.0,0.0,0.0
30/09/2022,02:10:57,0.000,0.0,0.0,0.0
30/09/2022,02:11:57,0.000,0.0,0.0,0.0
30/09/2022,02:12:57,0.000,0.0,0.0,0.0
30/09/2022,02:13:58,0.000,0.0,0.0,0.0
30/09/2022,02:14:57,0.000,0.0,0.0,0.0
30/09/2022,02:15:57,0.000,0.0,0.0,0.0
30/09/2022,02:16:57,0.000,0.0,0.0,0.0
30/09/2022,02:17:57,0.000,0.0,0.0,0.0
30/09/2022,02:18:58,0.000,0.0,0.0,0.0
30/09/2022,02:19:57,0.001,0.0,0.0,0.0
30/09/2022,02:20:57,0.000,0.0,0.0,0.0
30/09/2022,02:21:57,0.000,0.0,0.0,0.0
30/09/2022,02:22:58,0.000,0.0,0.0,0.0
30/09/2022,02:23:57,0.000,0.0,0.0,0.0
30/09/2022,02:24:57,0.000,0.0,0.0,0.0
30/09/2022,02:25:57,0.001,0.0,0.0,0.0
30/09/2022,02:26:57,0.000,0.0,0.0,0.0
30/09/2022,02:27:57,-0.001,0.0,0.0,0.0
30/09/2022,02:28:58,0.001,0.0,0.0,0.0
30/09/2022,02:29:57,0.001,0.0,0.0,0.0
30/09/2022,02:30:57,0.000,0.0,0.0,0.0
30/09/2022,02:31:57,0.001,0.0,0.0,0.0
30/09/2022,02:32:57,0.001,0.0,0.0,0.0
30/09/2022,02:33:58,0.001,0.0,0.0,0.0
30/09/2022,02:34:57,0.000,0.0,0.0,0.0
30/09/2022,02:35:57,0.000,0.0,0.0,0.0
30/09/2022,02:36:57,0.000,0.0,0.0,0.0
30/09/2022,02:37:58,0.000,0.0,0.0,0.0
30/09/2022,02:38:57,0.000,0.0,0.0,0.0
30/09/2022,02:39:57,0.000,0.0,0.0,0.0
30/09/2022,02:40:57,0.000,0.0,0.0,0.0
30/09/2022,02:41:58,0.000,0.0,0.0,0.0
30/09/2022,02:42:57,0.000,0.0,0.0,0.0
30/09/2022,02:43:57,0.000,0.0,0.0,0.0
30/09/2022,02:44:57,0.001,0.0,0.0,0.0
30/09/2022,02:45:57,0.000,0.0,0.0,0.0
30/09/2022,02:46:57,0.000,0.0,0.0,0.0
30/09/2022,02:47:58,-0.001,0.0,0.0,0.0
30/09/2022,02:48:58,0.000,0.0,0.0,0.0
30/09/2022,02:49:57,0.000,0.0,0.0,0.0
30/09/2022,02:50:57,0.000,0.0,0.0,0.0
30/09/2022,02:51:57,0.000,0.0,0.0,0.0
30/09/2022,02:52:58,-0.001,0.0,0.0,0.0
30/09/2022,02:53:57,-0.001,0.0,0.0,0.0
30/09/2022,02:54:57,-0.001,0.0,0.0,0.0
30/09/2022,02:55:59,-0.000,0.0,0.0,0.0
30/09/2022,02:56:57,0.001,0.0,0.0,0.0
30/09/2022,02:57:57,0.000,0.0,0.0,0.0
30/09/2022,02:58:57,0.000,0.0,0.0,0.0
30/09/2022,02:59:57,-0.001,0.0,0.0,0.0
30/09/2022,03:00:58,0.001,0.0,0.0,0.0
30/09/2022,03:01:57,0.000,0.0,0.0,0.0
30/09/2022,03:02:57,-0.001,0.0,0.0,0.0
30/09/2022,03:03:57,0.000,0.0,0.0,0.0
30/09/2022,03:04:57,0.000,0.0,0.0,0.0
30/09/2022,03:05:57,0.000,0.0,0.0,0.0
30/09/2022,03:06:58,-0.001,0.0,0.0,0.0
30/09/2022,03:07:58,0.000,0.0,0.0,0.0
30/09/2022,03:08:57,0.002,0.0,0.0,0.0
30/09/2022,03:09:57,-0.000,0.0,0.0,0.0
30/09/2022,03:10:58,0.001,0.0,0.0,0.0
30/09/2022,03:11:57,-0.000,0.0,0.0,0.0
30/09/2022,03:12:57,0.000,0.0,0.0,0.0
30/09/2022,03:13:57,0.001,0.0,0.0,0.0
30/09/2022,03:14:58,0.000,0.0,0.0,0.0
30/09/2022,03:15:57,0.001,0.0,0.0,0.0
30/09/2022,03:16:57,0.001,0.0,0.0,0.0
30/09/2022,03:17:57,0.000,0.0,0.0,0.0
30/09/2022,03:18:57,0.001,0.0,0.0,0.0
30/09/2022,03:19:57,0.000,0.0,0.0,0.0
30/09/2022,03:20:57,0.000,0.0,0.0,0.0
30/09/2022,03:21:57,0.001,0.0,0.0,0.0
30/09/2022,03:22:57,0.000,0.0,0.0,0.0
30/09/2022,03:23:57,0.000,0.0,0.0,0.0
30/09/2022,03:24:58,0.001,0.0,0.0,0.0
30/09/2022,03:25:57,0.001,0.0,0.0,0.0
30/09/2022,03:26:57,0.000,0.0,0.0,0.0
30/09/2022,03:27:58,0.000,0.0,0.0,0.0
30/09/2022,03:28:57,0.000,0.0,0.0,0.0
30/09/2022,03:29:57,0.000,0.0,0.0,0.0
30/09/2022,03:30:58,0.000,0.0,0.0,0.0
30/09/2022,03:31:57,0.001,0.0,0.0,0.0
30/09/2022,03:32:57,0.000,0.0,0.0,0.0
30/09/2022,03:33:57,0.001,0.0,0.0,0.0
30/09/2022,03:34:57,0.001,0.0,0.0,0.0
30/09/2022,03:35:57,0.001,0.0,0.0,0.0
30/09/2022,03:36:58,0.001,0.0,0.0,0.0
30/09/2022,03:37:58,0.000,0.0,0.0,0.0
30/09/2022,03:38:57,0.001,0.0,0.0,0.0
30/09/2022,03:39:57,0.001,0.0,0.0,0.0
30/09/2022,03:40:57,0.001,0.0,0.0,0.0
30/09/2022,03:41:58,0.001,0.0,0.0,0.0
30/09/2022,03:42:57,0.001,0.0,0.0,0.0
30/09/2022,03:43:58,0.000,0.0,0.0,0.0
30/09/2022,03:44:57,-0.000,0.0,0.0,0.0
30/09/2022,03:45:57,-0.000,0.0,0.0,0.0
30/09/2022,03:46:57,0.000,0.0,0.0,0.0
30/09/2022,03:47:58,0.001,0.0,0.0,0.0
30/09/2022,03:48:57,0.002,0.0,0.0,0.0
30/09/2022,03:49:57,0.001,0.0,0.0,0.0
30/09/2022,03:50:57,0.000,0.0,0.0,0.0
30/09/2022,03:51:58,0.001,0.0,0.0,0.0
30/09/2022,03:52:57,0.001,0.0,0.0,0.0
30/09/2022,03:53:57,0.001,0.0,0.0,0.0
30/09/2022,03:54:58,0.001,0.0,0.0,0.0
30/09/2022,03:55:58,-0.000,0.0,0.0,0.0
30/09/2022,03:56:58,0.001,0.0,0.0,0.0
30/09/2022,03:57:57,0.001,0.0,0.0,0.0
30/09/2022,03:58:58,-0.001,0.0,0.0,0.0
30/09/2022,03:59:57,0.001,0.0,0.0,0.0
30/09/2022,04:00:57,0.001,0.0,0.0,0.0
30/09/2022,04:01:57,0.000,0.0,0.0,0.0
30/09/2022,04:02:58,0.001,0.0,0.0,0.0
30/09/2022,04:03:58,0.001,0.0,0.0,0.0
30/09/2022,04:04:57,0.001,0.0,0.0,0.0
30/09/2022,04:05:58,0.001,0.0,0.0,0.0
30/09/2022,04:06:58,0.001,0.0,0.0,0.0
30/09/2022,04:07:58,-0.000,0.0,0.0,0.0
30/09/2022,04:08:58,0.001,0.0,0.0,0.0
30/09/2022,04:09:57,0.001,0.0,0.0,0.0
30/09/2022,04:10:58,0.001,0.0,0.0,0.0
30/09/2022,04:11:58,0.001,0.0,0.0,0.0
30/09/2022,04:12:57,0.001,0.0,0.0,0.0
30/09/2022,04:13:57,0.001,0.0,0.0,0.0
30/09/2022,04:14:58,0.001,0.0,0.0,0.0
30/09/2022,04:16:00,0.001,0.0,0.0,0.0
30/09/2022,04:16:58,0.001,0.0,0.0,0.0
30/09/2022,04:17:58,0.001,0.0,0.0,0.0
30/09/2022,04:18:57,0.001,0.0,0.0,0.0
30/09/2022,04:19:58,0.000,0.0,0.0,0.0
30/09/2022,04:20:57,0.001,0.0,0.0,0.0
30/09/2022,04:21:57,0.001,0.0,0.0,0.0
30/09/2022,04:22:58,0.000,0.0,0.0,0.0
30/09/2022,04:23:57,0.001,0.0,0.0,0.0
30/09/2022,04:24:58,0.001,0.0,0.0,0.0
30/09/2022,04:25:57,0.001,0.0,0.0,0.0
30/09/2022,04:26:57,0.001,0.0,0.0,0.0
30/09/2022,04:27:58,0.001,0.0,0.0,0.0
30/09/2022,04:28:57,0.001,0.0,0.0,0.0
30/09/2022,04:29:57,0.000,0.0,0.0,0.0
30/09/2022,04:30:58,0.001,0.0,0.0,0.0
30/09/2022,04:31:58,0.001,0.0,0.0,0.0
30/09/2022,04:32:58,0.000,0.0,0.0,0.0
30/09/2022,04:33:57,0.001,0.0,0.0,0.0
30/09/2022,04:34:57,0.001,0.0,0.0,0.0
30/09/2022,04:35:58,0.001,0.0,0.0,0.0
30/09/2022,04:36:58,0.000,0.0,0.0,0.0
30/09/2022,04:37:57,0.001,0.0,0.0,0.0
30/09/2022,04:38:58,0.001,0.0,0.0,0.0
30/09/2022,04:39:58,0.001,0.0,0.0,0.0
30/09/2022,04:40:58,0.001,0.0,0.0,0.0
30/09/2022,04:41:58,0.000,0.0,0.0,0.0
30/09/2022,04:42:57,-0.000,0.0,0.0,0.0
30/09/2022,04:43:57,0.001,0.0,0.0,0.0
30/09/2022,04:44:58,0.001,0.0,0.0,0.0
30/09/2022,04:45:58,0.001,0.0,0.0,0.0
30/09/2022,04:46:57,0.001,0.0,0.0,0.0
30/09/2022,04:47:57,0.001,0.0,0.0,0.0
30/09/2022,04:48:58,0.001,0.0,0.0,0.0
30/09/2022,04:49:57,0.000,0.0,0.0,0.0
30/09/2022,04:50:57,0.000,0.0,0.0,0.0
30/09/2022,04:51:57,0.001,0.0,0.0,0.0
30/09/2022,04:52:58,0.001,0.0,0.0,0.0
30/09/2022,04:53:58,0.001,0.0,0.0,0.0
30/09/2022,04:54:57,0.001,0.0,0.0,0.0
30/09/2022,04:55:57,0.001,0.0,0.0,0.0
30/09/2022,04:56:58,0.001,0.0,0.0,0.0
30/09/2022,04:57:58,0.001,0.0,0.0,0.0
30/09/2022,04:58:57,0.001,0.0,0.0,0.0
30/09/2022,04:59:57,0.000,0.0,0.0,0.0
30/09/2022,05:00:57,0.001,0.0,0.0,0.0
30/09/2022,05:01:58,0.001,0.0,0.0,0.0
30/09/2022,05:02:57,0.001,0.0,0.0,0.0
30/09/2022,05:03:58,0.000,0.0,0.0,0.0
30/09/2022,05:04:58,0.001,0.0,0.0,0.0
30/09/2022,05:05:57,0.000,0.0,0.0,0.0
30/09/2022,05:06:57,0.000,0.0,0.0,0.0
30/09/2022,05:07:58,0.001,0.0,0.0,0.0
30/09/2022,05:08:58,0.001,0.0,0.0,0.0
30/09/2022,05:09:58,0.001,0.0,0.0,0.0
30/09/2022,05:10:57,0.000,0.0,0.0,0.0
30/09/2022,05:11:58,0.001,0.0,0.0,0.0
30/09/2022,05:12:58,0.001,0.0,0.0,0.0
30/09/2022,05:13:59,0.001,0.0,0.0,0.0
30/09/2022,05:14:58,0.001,0.0,0.0,0.0
30/09/2022,05:15:58,0.000,0.0,0.0,0.0
30/09/2022,05:16:57,0.001,0.0,0.0,0.0
30/09/2022,05:17:57,0.000,0.0,0.0,0.0
30/09/2022,05:18:58,0.000,0.0,0.0,0.0
30/09/2022,05:19:58,0.001,0.0,0.0,0.0
30/09/2022,05:20:57,0.001,0.0,0.0,0.0
30/09/2022,05:21:58,0.001,0.0,0.0,0.0
30/09/2022,05:22:58,0.001,0.0,0.0,0.0
30/09/2022,05:23:58,0.001,0.0,0.0,0.0
30/09/2022,05:24:57,0.001,0.0,0.0,0.0
30/09/2022,05:25:57,0.000,0.0,0.0,0.0
30/09/2022,05:26:58,0.001,0.0,0.0,0.0
30/09/2022,05:27:58,0.000,0.0,0.0,0.0
30/09/2022,05:28:57,0.000,0.0,0.0,0.0
30/09/2022,05:29:57,0.000,0.0,0.0,0.0
30/09/2022,05:30:58,0.000,0.0,0.0,0.0
30/09/2022,05:31:58,0.001,0.0,0.0,0.0
30/09/2022,05:32:58,-0.001,0.0,0.0,0.0
30/09/2022,05:33:57,0.000,0.0,0.0,0.0
30/09/2022,05:34:58,0.000,0.0,0.0,0.0
30/09/2022,05:35:57,0.000,0.0,0.0,0.0
30/09/2022,05:36:58,0.000,0.0,0.0,0.0
30/09/2022,05:37:58,0.000,0.0,0.0,0.0
30/09/2022,05:38:57,0.000,0.0,0.0,0.0
30/09/2022,05:40:02,0.000,0.0,0.0,0.0
30/09/2022,05:40:58,0.001,0.0,0.0,0.0
30/09/2022,05:41:59,-0.001,0.0,0.0,0.0
30/09/2022,05:42:58,0.000,0.0,0.0,0.0
30/09/2022,05:43:57,-0.000,0.0,0.0,0.0
30/09/2022,05:44:57,0.000,0.0,0.0,0.0
30/09/2022,05:45:58,0.001,0.0,0.0,0.0
30/09/2022,05:46:58,-0.000,0.0,0.0,0.0
30/09/2022,05:47:57,0.001,0.0,0.0,0.0
30/09/2022,05:48:58,0.001,0.0,0.0,0.0
30/09/2022,05:49:57,0.000,0.0,0.0,0.0
30/09/2022,05:50:57,0.001,0.0,0.0,0.0
30/09/2022,05:51:58,0.000,0.0,0.0,0.0
30/09/2022,05:52:58,0.000,0.0,0.0,0.0
30/09/2022,05:53:57,0.001,0.0,0.0,0.0
30/09/2022,05:54:58,0.001,0.0,0.0,0.0
30/09/2022,05:55:58,0.001,0.0,0.0,0.0
30/09/2022,05:56:58,0.001,0.0,0.0,0.0
30/09/2022,05:57:58,0.001,0.0,0.0,0.0
30/09/2022,05:58:57,0.001,0.0,0.0,0.0
30/09/2022,05:59:58,0.002,0.0,0.0,0.0
30/09/2022,06:00:58,0.002,0.0,0.0,0.0
30/09/2022,06:01:57,0.002,0.0,0.0,0.0
30/09/2022,06:02:57,0.003,0.0,0.0,0.0
30/09/2022,06:03:58,0.002,0.0,0.0,0.0
30/09/2022,06:04:58,0.003,0.0,0.0,0.0
30/09/2022,06:05:58,0.003,0.0,0.0,0.0
30/09/2022,06:06:58,0.002,0.0,0.0,0.0
30/09/2022,06:07:58,0.002,0.0,0.0,0.0
30/09/2022,06:08:57,0.003,0.0,0.0,0.0
30/09/2022,06:09:57,0.004,0.0,0.0,0.0
30/09/2022,06:10:57,0.003,0.0,0.0,0.0
30/09/2022,06:11:58,0.004,0.0,0.0,0.0
30/09/2022,06:12:58,0.003,0.0,0.0,0.0
30/09/2022,06:13:58,0.004,0.0,0.0,0.0
30/09/2022,06:14:58,0.005,0.0,0.0,0.0
30/09/2022,06:15:58,0.005,0.0,0.0,0.0
30/09/2022,06:16:57,0.004,0.0,0.0,0.0
30/09/2022,06:17:58,0.004,0.0,0.0,0.0
30/09/2022,06:18:58,0.005,0.0,0.0,0.0
30/09/2022,06:19:58,0.005,0.0,0.0,0.0
30/09/2022,06:20:58,0.005,0.0,0.0,0.0
30/09/2022,06:21:58,0.006,0.0,0.0,0.0
30/09/2022,06:22:58,0.006,0.0,0.0,0.0
30/09/2022,06:23:58,0.008,0.0,0.0,0.0
30/09/2022,06:24:58,0.007,0.0,0.0,0.0
30/09/2022,06:25:59,0.007,0.0,0.0,0.0
30/09/2022,06:26:59,0.009,0.0,0.0,0.0
30/09/2022,06:27:57,0.009,0.0,0.001,0.001
30/09/2022,06:28:58,0.009,0.0,0.001,0.0
30/09/2022,06:29:58,0.010,0.0,0.001,0.0
30/09/2022,06:30:57,0.010,0.0,0.001,0.0
30/09/2022,06:31:58,0.009,0.0,0.001,0.0
30/09/2022,06:32:59,0.010,0.0,0.001,0.0
30/09/2022,06:33:58,0.011,0.0,0.002,0.001
30/09/2022,06:34:58,0.012,0.0,0.002,0.0
30/09/2022,06:35:58,0.012,0.0,0.002,0.0
30/09/2022,06:36:58,0.013,0.0,0.002,0.0
30/09/2022,06:37:58,0.014,0.0,0.002,0.0
30/09/2022,06:38:58,0.015,0.0,0.003,0.001
30/09/2022,06:39:58,0.015,0.0,0.003,0.0
30/09/2022,06:40:57,0.017,0.0,0.003,0.0
30/09/2022,06:41:58,0.016,0.0,0.003,0.0
30/09/2022,06:42:57,0.017,0.0,0.004,0.001
30/09/2022,06:43:58,0.018,0.0,0.004,0.0
30/09/2022,06:44:57,0.018,0.0,0.004,0.0
30/09/2022,06:45:58,0.018,0.0,0.005,0.001
30/09/2022,06:46:58,0.019,0.0,0.005,0.0
30/09/2022,06:47:57,0.019,0.0,0.005,0.0
30/09/2022,06:48:58,0.020,0.0,0.006,0.001
30/09/2022,06:49:57,0.022,0.0,0.006,0.0
30/09/2022,06:50:57,0.024,0.0,0.006,0.0
30/09/2022,06:51:58,0.022,0.0,0.007,0.001
30/09/2022,06:52:58,0.021,0.0,0.007,0.0
30/09/2022,06:53:58,0.020,0.0,0.007,0.0
30/09/2022,06:54:58,0.023,0.0,0.008,0.001
30/09/2022,06:55:58,0.023,0.0,0.008,0.0
30/09/2022,06:56:58,0.023,0.0,0.008,0.0
30/09/2022,06:57:58,0.023,0.0,0.009,0.001
30/09/2022,06:58:57,0.027,0.0,0.009,0.0
30/09/2022,06:59:58,0.028,0.0,0.01,0.001
30/09/2022,07:00:58,0.029,0.0,0.01,0.0
30/09/2022,07:01:57,0.031,0.0,0.011,0.001
30/09/2022,07:02:58,0.030,0.0,0.011,0.0
30/09/2022,07:03:58,0.031,0.0,0.012,0.001
30/09/2022,07:04:59,0.032,0.0,0.012,0.0
30/09/2022,07:05:58,0.031,0.0,0.013,0.001
30/09/2022,07:06:58,0.031,0.0,0.013,0.0
30/09/2022,07:07:58,0.039,0.0,0.014,0.001
30/09/2022,07:08:57,0.039,0.0,0.014,0.0
30/09/2022,07:09:58,0.038,0.0,0.015,0.001
30/09/2022,07:10:58,0.033,0.0,0.016,0.001
30/09/2022,07:11:57,0.035,0.0,0.016,0.0
30/09/2022,07:12:58,0.038,0.0,0.017,0.001
30/09/2022,07:15:15,0.043,0.0,0.018,0.001
30/09/2022,07:15:58,0.041,0.0,0.019,0.001
30/09/2022,07:16:58,0.040,0.0,0.02,0.001
30/09/2022,07:17:57,0.043,0.0,0.02,0.0
30/09/2022,07:18:57,0.047,0.0,0.021,0.001
30/09/2022,07:19:58,0.049,0.0,0.022,0.001
30/09/2022,07:20:58,0.048,0.0,0.023,0.001
30/09/2022,07:21:57,0.047,0.0,0.023,0.0
30/09/2022,07:22:58,0.052,0.0,0.024,0.001
30/09/2022,07:23:58,0.056,0.0,0.025,0.001
30/09/2022,07:24:57,0.057,0.0,0.026,0.001
30/09/2022,07:25:58,0.062,0.0,0.027,0.001
30/09/2022,07:26:58,0.063,0.0,0.028,0.001
30/09/2022,07:27:58,0.068,0.0,0.029,0.001
30/09/2022,07:28:58,0.072,0.0,0.03,0.001
30/09/2022,07:29:58,0.073,0.0,0.032,0.002
30/09/2022,07:30:58,0.073,0.0,0.033,0.001
30/09/2022,07:31:58,0.077,0.0,0.034,0.001
30/09/2022,07:32:57,0.080,0.0,0.035,0.001
30/09/2022,07:33:57,0.081,0.0,0.037,0.002
30/09/2022,07:34:58,0.082,0.0,0.038,0.001
30/09/2022,07:35:58,0.079,0.0,0.04,0.002
30/09/2022,07:36:58,0.078,0.0,0.041,0.001
30/09/2022,07:37:58,0.085,0.0,0.042,0.001
30/09/2022,07:38:58,0.084,0.0,0.044,0.002
30/09/2022,07:39:58,0.081,0.0,0.045,0.001
30/09/2022,07:40:58,0.085,0.0,0.046,0.001
30/09/2022,07:41:57,0.087,0.0,0.048,0.002
30/09/2022,07:42:58,0.090,0.0,0.049,0.001
30/09/2022,07:43:58,0.088,0.0,0.051,0.002
30/09/2022,07:44:58,0.087,0.0,0.052,0.001
30/09/2022,07:45:58,0.086,0.0,0.054,0.002
30/09/2022,07:46:57,0.089,0.0,0.055,0.001
30/09/2022,07:47:58,0.090,0.0,0.057,0.002
30/09/2022,07:48:58,0.090,0.0,0.058,0.001
30/09/2022,07:49:57,0.098,0.0,0.06,0.002
30/09/2022,07:50:57,0.092,0.0,0.061,0.001
30/09/2022,07:51:57,0.092,0.0,0.063,0.002
30/09/2022,07:52:58,0.094,0.0,0.064,0.001
30/09/2022,07:53:58,0.091,0.0,0.066,0.002
30/09/2022,07:54:58,0.092,0.0,0.067,0.001
30/09/2022,07:55:58,0.095,0.0,0.069,0.002
30/09/2022,07:56:58,0.099,0.0,0.071,0.002
30/09/2022,07:57:58,0.093,0.0,0.072,0.001
30/09/2022,07:58:58,0.088,0.0,0.074,0.002
30/09/2022,07:59:58,0.091,0.0,0.075,0.001
30/09/2022,08:00:58,0.088,0.0,0.077,0.002
30/09/2022,08:01:58,0.090,0.0,0.078,0.001
30/09/2022,08:02:58,0.093,0.0,0.08,0.002
30/09/2022,08:03:57,0.094,0.0,0.081,0.001
30/09/2022,08:04:58,0.089,0.0,0.083,0.002
30/09/2022,08:05:58,0.085,0.0,0.084,0.001
30/09/2022,08:08:15,0.090,0.0,0.088,0.004
30/09/2022,08:08:57,0.086,0.0,0.089,0.001
30/09/2022,08:09:58,0.081,0.0,0.09,0.001
30/09/2022,08:10:58,0.075,0.0,0.091,0.001
30/09/2022,08:11:58,0.082,0.0,0.093,0.002
30/09/2022,08:12:58,0.089,0.0,0.094,0.001
30/09/2022,08:13:58,0.094,0.0,0.096,0.002
30/09/2022,08:14:59,0.078,0.0,0.097,0.001
30/09/2022,08:15:59,0.067,0.0,0.098,0.001
30/09/2022,08:16:57,0.063,0.0,0.1,0.002
30/09/2022,08:17:58,0.065,0.0,0.101,0.001
30/09/2022,08:18:58,0.073,0.0,0.102,0.001
30/09/2022,08:19:58,0.072,0.0,0.103,0.001
30/09/2022,08:20:58,0.075,0.0,0.104,0.001
30/09/2022,08:21:58,0.081,0.0,0.105,0.001
30/09/2022,08:22:58,0.075,0.0,0.107,0.002
30/09/2022,08:23:58,0.072,0.0,0.108,0.001
30/09/2022,08:24:58,0.077,0.0,0.109,0.001
30/09/2022,08:25:58,0.086,0.0,0.111,0.002
30/09/2022,08:26:58,0.111,0.0,0.112,0.001
30/09/2022,08:27:58,0.110,0.0,0.114,0.002
30/09/2022,08:29:00,0.122,0.0,0.116,0.002
30/09/2022,08:29:58,0.137,0.0,0.118,0.002
30/09/2022,08:30:58,0.160,0.0,0.121,0.003
30/09/2022,08:31:58,0.167,0.0,0.123,0.002
30/09/2022,08:32:58,0.169,0.0,0.126,0.003
30/09/2022,08:33:58,0.183,0.0,0.129,0.003
30/09/2022,08:34:58,0.196,0.0,0.132,0.003
30/09/2022,08:35:57,0.203,0.0,0.136,0.004
30/09/2022,08:36:58,0.199,0.0,0.139,0.003
30/09/2022,08:37:58,0.192,0.0,0.142,0.003
30/09/2022,08:38:57,0.188,0.0,0.145,0.003
30/09/2022,08:39:58,0.201,0.0,0.149,0.004
30/09/2022,08:40:58,0.204,0.0,0.152,0.003
30/09/2022,08:41:58,0.205,0.0,0.155,0.003
30/09/2022,08:42:58,0.209,0.0,0.159,0.004
30/09/2022,08:43:58,0.204,0.0,0.162,0.003
30/09/2022,08:44:58,0.201,0.0,0.166,0.004
30/09/2022,08:45:58,0.197,0.0,0.169,0.003
30/09/2022,08:46:58,0.191,0.0,0.172,0.003
30/09/2022,08:47:58,0.189,0.0,0.175,0.003
30/09/2022,08:48:58,0.185,0.0,0.178,0.003
30/09/2022,08:49:58,0.181,0.0,0.182,0.004
30/09/2022,08:50:58,0.181,0.0,0.185,0.003
30/09/2022,08:51:58,0.181,0.0,0.188,0.003
30/09/2022,08:52:58,0.180,0.0,0.191,0.003
30/09/2022,08:53:58,0.182,0.0,0.194,0.003
30/09/2022,08:54:58,0.182,0.0,0.197,0.003
30/09/2022,08:55:58,0.183,0.0,0.2,0.003
30/09/2022,08:56:58,0.183,0.0,0.203,0.003
30/09/2022,08:57:58,0.184,0.0,0.206,0.003
30/09/2022,08:58:58,0.185,0.0,0.209,0.003
30/09/2022,08:59:58,0.190,0.0,0.212,0.003
30/09/2022,09:00:57,0.194,0.0,0.215,0.003
30/09/2022,09:01:58,0.204,0.0,0.219,0.004
30/09/2022,09:02:58,0.214,0.0,0.222,0.003
30/09/2022,09:03:58,0.223,1.0,0.226,0.004
30/09/2022,09:04:58,0.231,1.0,0.229,0.003
30/09/2022,09:05:57,0.237,1.0,0.233,0.004
30/09/2022,09:06:58,0.239,1.0,0.237,0.004
30/09/2022,09:07:58,0.239,1.0,0.241,0.004
30/09/2022,09:08:58,0.237,1.0,0.245,0.004
30/09/2022,09:09:58,0.236,1.0,0.249,0.004
30/09/2022,09:10:58,0.235,1.0,0.253,0.004
30/09/2022,09:11:58,0.235,1.0,0.257,0.004
30/09/2022,09:12:58,0.233,1.0,0.261,0.004
30/09/2022,09:13:58,0.235,1.0,0.265,0.004
30/09/2022,09:14:58,0.233,1.0,0.269,0.004
30/09/2022,09:15:58,0.235,1.0,0.273,0.004
30/09/2022,09:16:58,0.239,1.0,0.277,0.004
30/09/2022,09:17:58,0.247,1.0,0.281,0.004
30/09/2022,09:18:58,0.259,1.0,0.285,0.004
30/09/2022,09:19:58,0.275,1.0,0.289,0.004
30/09/2022,09:20:58,0.288,1.0,0.294,0.005
30/09/2022,09:21:58,0.295,1.0,0.299,0.005
30/09/2022,09:22:58,0.295,1.0,0.304,0.005
30/09/2022,09:23:58,0.290,1.0,0.309,0.005
30/09/2022,09:24:58,0.281,1.0,0.313,0.004
30/09/2022,09:25:58,0.271,1.0,0.318,0.005
30/09/2022,09:26:58,0.261,1.0,0.323,0.005
30/09/2022,09:27:58,0.254,1.0,0.327,0.004
30/09/2022,09:28:58,0.248,1.0,0.331,0.004
30/09/2022,09:29:58,0.243,1.0,0.335,0.004
30/09/2022,09:30:58,0.240,1.0,0.339,0.004
30/09/2022,09:31:58,0.238,1.0,0.343,0.004
30/09/2022,09:32:58,0.235,1.0,0.347,0.004
30/09/2022,09:33:58,0.234,1.0,0.351,0.004
30/09/2022,09:34:58,0.231,1.0,0.355,0.004
30/09/2022,09:35:58,0.234,1.0,0.359,0.004
30/09/2022,09:36:58,0.241,1.0,0.363,0.004
30/09/2022,09:37:58,0.252,1.0,0.367,0.004
30/09/2022,09:38:58,0.267,1.0,0.371,0.004
30/09/2022,09:39:58,0.278,1.0,0.376,0.005
30/09/2022,09:40:59,0.288,1.0,0.38,0.004
30/09/2022,09:41:58,0.293,1.0,0.385,0.005
30/09/2022,09:42:58,0.296,1.0,0.39,0.005
30/09/2022,09:43:58,0.298,1.0,0.395,0.005
30/09/2022,09:44:58,0.301,1.0,0.4,0.005
30/09/2022,09:45:58,0.303,1.0,0.405,0.005
30/09/2022,09:46:58,0.306,1.0,0.41,0.005
30/09/2022,09:47:58,0.307,1.0,0.415,0.005
30/09/2022,09:48:58,0.306,1.0,0.42,0.005
30/09/2022,09:49:58,0.306,1.0,0.425,0.005
30/09/2022,09:50:58,0.303,1.0,0.431,0.006
30/09/2022,09:51:58,0.300,1.0,0.436,0.005
30/09/2022,09:52:58,0.297,1.0,0.441,0.005
30/09/2022,09:53:58,0.294,1.0,0.445,0.004
30/09/2022,09:54:58,0.292,1.0,0.45,0.005
30/09/2022,09:55:58,0.290,1.0,0.455,0.005
30/09/2022,09:56:58,0.289,1.0,0.46,0.005
30/09/2022,09:57:58,0.289,1.0,0.465,0.005
30/09/2022,09:58:58,0.289,1.0,0.47,0.005
30/09/2022,09:59:58,0.286,1.0,0.474,0.004
30/09/2022,10:00:58,0.287,1.0,0.479,0.005
30/09/2022,10:01:58,0.287,1.0,0.484,0.005
30/09/2022,10:02:58,0.290,1.0,0.489,0.005
30/09/2022,10:03:58,0.293,1.0,0.494,0.005
30/09/2022,10:04:59,0.296,1.0,0.499,0.005
30/09/2022,10:05:58,0.300,1.0,0.504,0.005
30/09/2022,10:06:58,0.306,1.0,0.509,0.005
30/09/2022,10:07:58,0.311,1.0,0.514,0.005
30/09/2022,10:08:58,0.318,1.0,0.519,0.005